Wind_Speed
15 15 15 15 15 16 16 17 17 18 19 19 19 20 20 21 21 21 22 22 23 23 23 23 23 23 23 23 23 24 24 24 24 25 25 25 25 25
18 18 19 19 19 20 20 21 22 22 23 23 24 24 25 25 25 25 26 26 26 26 26 27 27 27 27 27 27 27 27 28 28 28 28 28 28 28
21 22 22 23 23 23 24 25 26 26 27 28 28 29 29 29 29 30 30 30 30 30 30 30 30 31 31 31 31 31 31 32 32 32 32 32 32 31
24 25 26 26 26 27 28 29 30 30 31 32 33 33 34 34 34 34 35 34 35 34 35 35 35 35 35 35 35 35 35 36 36 36 36 36 35 35
27 28 29 29 30 31 31 32 33 34 34 36 37 37 38 38 38 39 39 39 39 40 39 39 39 39 39 40 40 40 40 39 39 39 39 39 39 38
29 30 31 31 33 34 34 35 36 37 38 39 40 41 42 42 43 43 43 43 43 44 44 44 44 44 44 44 44 44 44 44 43 43 43 43 42 42
31 32 33 34 35 36 37 38 39 40 41 41 42 43 44 45 45 46 46 46 46 47 47 47 48 48 48 48 48 48 48 48 48 47 47 46 46 46
33 34 35 36 37 38 39 40 41 43 44 45 45 45 46 47 49 49 50 50 50 50 50 50 51 51 52 52 52 51 52 52 52 52 51 51 50 50
36 37 38 39 40 40 41 43 45 45 46 48 49 50 51 52 52 53 54 54 53 53 54 53 53 54 54 54 54 54 54 55 55 54 54 54 53 52
39 40 41 42 44 45 46 47 48 49 50 51 52 52 54 55 55 55 56 56 55 55 56 55 55 56 56 56 56 55 56 57 57 57 57 56 56 55
41 43 44 45 46 48 49 50 51 52 52 52 53 54 55 56 56 57 57 57 57 57 58 59 59 59 58 57 58 58 58 58 59 59 59 59 60 60
43 45 46 47 48 49 50 51 52 53 54 55 56 57 57 58 58 59 59 60 60 60 60 61 60 61 60 60 60 61 61 61 62 62 62 63 63 64
45 46 47 48 49 51 52 53 54 55 56 57 58 59 60 60 61 62 62 63 63 63 63 64 64 64 65 64 63 64 64 64 65 65 65 65 66 67
47 48 50 51 53 54 55 56 57 58 59 60 61 61 62 63 64 65 65 65 65 65 65 67 67 67 67 67 67 66 66 67 67 67 68 68 69 69
49 51 53 55 56 57 58 60 61 62 62 63 63 64 65 65 66 66 66 67 67 68 69 69 69 69 70 69 68 68 67 67 68 68 68 68 68 68
53 55 57 58 59 61 62 63 63 63 64 64 65 65 65 66 66 66 67 68 67 67 67 68 68 68 68 68 67 67 67 66 65 65 64 64 63 64
56 58 59 60 61 62 62 63 63 63 63 63 63 63 63 63 63 63 63 63 62 62 62 62 63 64 64 64 63 62 61 61 61 60 60 59 58 59
58 59 59 60 60 60 60 60 60 59 59 59 59 59 58 58 57 57 57 56 55 55 55 55 55 56 55 54 54 53 53 53 53 52 52 52 52 53
57 58 58 58 57 56 56 55 55 55 54 53 53 52 52 51 51 50 50 49 49 48 48 48 48 47 46 44 44 46 46 45 46 46 47 48 48 48
55 55 54 53 51 51 50 49 48 47 46 46 46 45 45 45 44 44 43 43 43 42 42 42 42 42 41 40 38 39 41 41 41 42 42 43 44 44
51 49 48 47 46 45 43 42 41 41 41 40 40 40 40 39 39 38 38 38 37 37 37 36 36 36 36 35 34 34 35 36 37 37 38 39 39 39
46 45 44 43 42 40 39 38 38 38 37 37 37 37 36 35 35 35 34 33 33 32 31 31 32 32 32 31 30 30 30 31 31 32 33 34 34 34
42 41 40 39 38 37 36 36 35 35 35 34 34 34 33 33 32 31 29 29 28 28 28 27 27 28 28 28 28 27 27 27 27 27 28 29 29 28
Wind_Direction
253 255 258 260 263 265 267 268 271 272 273 274 275 276 276 277 277 277 277 277 277 277 276 276 276 276 276 275 275 274 274 273 273 273 272 272 272 272
256 258 260 263 264 266 267 269 271 273 274 274 275 275 275 275 276 277 276 276 276 276 276 276 275 275 275 274 274 274 274 273 273 273 273 272 272 273
259 260 262 264 266 267 268 270 271 272 274 274 275 275 275 275 276 276 276 276 276 276 276 275 275 275 275 275 274 274 274 274 273 273 273 273 272 272
262 263 264 265 266 267 269 270 271 272 273 274 275 274 275 275 275 276 275 275 275 275 275 275 275 275 274 274 274 274 273 273 273 273 272 272 272 272
265 266 267 268 268 269 270 271 271 272 274 275 276 276 276 276 276 276 276 276 276 276 275 275 275 275 274 274 274 274 274 273 273 272 272 272 271 271
267 268 270 271 271 272 272 273 273 273 274 275 275 276 277 277 277 277 277 277 277 277 276 275 275 275 275 275 274 274 274 274 273 273 272 271 271 270
269 271 271 273 274 274 274 274 274 274 274 275 276 276 275 275 275 276 276 276 277 277 276 276 275 275 274 273 273 273 273 273 272 272 272 271 270 270
272 273 274 275 275 275 275 276 276 276 276 276 277 277 276 276 275 276 276 276 276 275 275 275 276 276 275 274 273 273 273 272 272 271 271 270 269 269
275 275 276 276 278 278 278 277 278 278 277 278 279 280 279 278 278 277 277 276 276 276 275 275 275 275 274 274 274 274 273 272 272 271 271 270 269 268
278 278 278 278 279 280 280 280 280 279 280 280 281 281 280 280 279 278 277 276 276 276 276 276 275 274 274 274 274 273 273 273 272 272 271 270 269 268
280 280 280 280 281 281 282 282 281 281 281 281 281 281 280 280 280 279 277 277 277 277 277 277 276 274 274 274 274 273 272 272 272 271 271 271 270 269
282 282 282 282 283 283 282 282 282 282 282 282 282 282 281 280 280 279 278 278 278 277 277 277 277 276 275 274 274 274 273 272 271 271 271 270 270 270
283 283 282 282 283 283 283 282 282 282 282 283 282 282 282 281 281 280 280 280 280 279 279 278 277 277 277 276 275 275 274 273 272 272 271 271 270 270
284 284 283 283 283 283 283 283 283 283 283 283 282 282 282 281 281 281 281 281 280 280 279 279 279 278 277 277 276 276 276 275 274 273 273 273 272 271
285 285 284 284 284 284 284 285 284 284 284 284 283 283 283 283 282 282 282 282 281 281 281 280 280 280 279 278 277 276 276 275 275 275 274 274 273 272
286 286 286 286 286 287 287 286 286 286 285 285 284 284 284 284 283 282 282 281 281 281 281 280 280 280 279 279 278 277 276 276 275 274 274 273 272 272
289 289 289 289 289 289 288 288 287 287 286 285 285 285 284 284 284 283 282 282 281 281 281 281 282 281 280 280 279 278 277 277 276 275 274 273 272 271
291 292 292 292 291 291 291 290 289 288 288 287 287 287 286 285 285 284 284 283 283 282 282 282 282 282 281 280 279 278 277 276 276 276 275 274 273 272
294 294 294 293 293 293 292 291 291 290 289 289 288 288 288 287 287 286 285 284 284 283 282 282 282 281 280 279 278 278 278 277 276 276 276 275 275 274
296 296 295 295 294 294 294 294 293 293 292 291 290 290 289 289 288 288 287 286 285 284 283 283 282 282 281 280 278 278 280 279 278 277 277 277 276 276
298 298 297 297 296 296 296 295 295 295 294 293 293 292 292 291 290 289 288 287 286 285 284 284 283 283 283 281 280 279 280 281 280 279 279 279 277 276
300 299 299 299 298 297 296 296 296 296 295 294 294 295 294 293 293 292 290 289 288 287 286 285 284 283 283 283 283 283 283 281 281 283 284 284 282 280
301 300 300 300 299 298 298 298 297 297 296 296 296 296 296 295 296 295 293 291 290 289 288 288 286 285 284 284 286 287 287 284 283 284 287 287 285 282
Height
5875 5875 5875 5875 5875 5875 5875 5874 5874 5874 5873 5872 5872 5871 5870 5869 5868 5868 5867 5866 5866 5865 5864 5864 5863 5863 5862 5862 5862 5861 5861 5861 5860 5860 5860 5860 5860 5860
5870 5871 5871 5871 5871 5870 5870 5870 5869 5869 5868 5867 5867 5866 5865 5864 5863 5862 5861 5860 5860 5859 5859 5858 5857 5857 5856 5856 5855 5855 5854 5854 5854 5854 5853 5853 5853 5853
5865 5865 5865 5865 5865 5865 5864 5864 5863 5862 5861 5860 5860 5859 5858 5857 5856 5855 5854 5854 5853 5852 5851 5851 5850 5849 5849 5848 5848 5847 5847 5847 5846 5846 5846 5846 5845 5845
5859 5859 5859 5859 5858 5858 5857 5857 5856 5855 5854 5853 5852 5851 5850 5849 5848 5847 5846 5845 5845 5844 5843 5842 5842 5841 5840 5840 5839 5839 5838 5838 5838 5837 5837 5837 5837 5837
5852 5852 5852 5852 5851 5851 5850 5849 5848 5847 5846 5845 5844 5842 5841 5840 5839 5838 5837 5836 5835 5834 5833 5833 5832 5831 5830 5830 5829 5829 5828 5828 5828 5827 5827 5827 5827 5827
5845 5845 5845 5844 5843 5842 5841 5840 5839 5838 5837 5836 5834 5833 5831 5830 5828 5827 5826 5825 5824 5822 5821 5821 5820 5820 5819 5818 5817 5817 5816 5816 5816 5816 5816 5816 5816 5816
5837 5837 5836 5835 5834 5833 5832 5831 5829 5828 5827 5825 5824 5822 5820 5819 5817 5816 5814 5813 5812 5810 5809 5808 5806 5806 5806 5805 5804 5804 5803 5803 5803 5803 5803 5803 5803 5803
5828 5828 5827 5825 5824 5822 5821 5820 5818 5817 5815 5813 5812 5810 5808 5806 5805 5803 5801 5800 5799 5798 5795 5795 5793 5792 5791 5790 5790 5790 5789 5788 5788 5788 5789 5789 5789 5790
5819 5818 5817 5815 5813 5812 5810 5808 5806 5804 5803 5801 5798 5797 5794 5793 5791 5789 5787 5786 5784 5783 5781 5780 5779 5777 5776 5775 5774 5774 5773 5772 5772 5772 5772 5773 5773 5774
5810 5808 5806 5804 5802 5800 5798 5795 5793 5791 5789 5787 5784 5782 5780 5777 5775 5773 5771 5770 5769 5767 5764 5764 5763 5762 5760 5759 5758 5757 5757 5756 5755 5755 5755 5756 5756 5757
5799 5797 5794 5792 5790 5787 5785 5782 5779 5776 5774 5771 5769 5766 5764 5762 5759 5757 5755 5753 5752 5751 5748 5746 5746 5744 5744 5743 5741 5740 5740 5739 5738 5737 5737 5738 5738 5738
5788 5785 5782 5780 5777 5774 5771 5768 5765 5762 5759 5756 5753 5751 5748 5745 5742 5740 5737 5735 5734 5733 5730 5728 5727 5725 5726 5726 5724 5722 5721 5721 5720 5720 5719 5719 5718 5718
5775 5772 5770 5767 5763 5760 5757 5753 5750 5746 5743 5740 5737 5733 5730 5727 5724 5722 5719 5717 5715 5713 5711 5708 5707 5705 5704 5706 5705 5703 5701 5700 5699 5699 5699 5699 5698 5698
5763 5759 5756 5753 5749 5745 5742 5738 5734 5730 5727 5723 5719 5716 5712 5709 5706 5703 5700 5697 5695 5693 5690 5687 5686 5685 5683 5683 5683 5682 5679 5678 5677 5676 5676 5676 5676 5676
5749 5745 5741 5737 5733 5729 5726 5721 5717 5713 5709 5705 5701 5698 5694 5690 5686 5683 5680 5678 5675 5672 5669 5667 5664 5663 5661 5661 5661 5660 5658 5656 5654 5653 5653 5652 5653 5653
5734 5730 5726 5721 5716 5712 5707 5703 5699 5695 5690 5686 5682 5678 5674 5670 5666 5663 5660 5657 5655 5652 5647 5644 5642 5641 5639 5638 5637 5636 5634 5634 5632 5631 5630 5630 5630 5629
5718 5713 5708 5703 5698 5693 5688 5684 5679 5675 5670 5666 5662 5658 5654 5650 5646 5642 5639 5636 5633 5631 5628 5624 5621 5619 5618 5616 5615 5614 5612 5612 5610 5609 5609 5609 5610 5609
5701 5695 5690 5685 5679 5674 5669 5664 5659 5655 5650 5646 5642 5638 5634 5631 5627 5623 5619 5616 5614 5611 5608 5606 5603 5600 5599 5597 5595 5593 5593 5592 5591 5590 5589 5589 5590 5589
5684 5678 5672 5667 5662 5656 5651 5646 5642 5637 5632 5628 5624 5621 5617 5613 5610 5606 5603 5600 5597 5594 5592 5589 5586 5584 5583 5582 5580 5576 5576 5575 5574 5573 5572 5571 5571 5571
5667 5661 5656 5650 5645 5640 5635 5630 5626 5621 5617 5613 5609 5606 5602 5598 5595 5591 5588 5585 5582 5580 5577 5574 5572 5569 5568 5567 5567 5565 5561 5560 5559 5557 5556 5555 5555 5554
5651 5645 5640 5635 5630 5626 5621 5616 5612 5608 5604 5600 5596 5593 5589 5585 5582 5578 5575 5572 5569 5567 5565 5562 5560 5557 5555 5554 5554 5553 5550 5547 5545 5544 5542 5541 5540 5539
5637 5632 5627 5622 5617 5613 5608 5604 5600 5596 5592 5589 5585 5581 5577 5574 5570 5567 5564 5561 5558 5555 5553 5551 5549 5546 5544 5543 5542 5541 5539 5537 5534 5532 5530 5528 5526 5526
5624 5619 5614 5610 5605 5601 5597 5593 5589 5585 5582 5578 5574 5570 5567 5563 5560 5556 5553 5551 5548 5546 5544 5542 5539 5537 5535 5533 5532 5531 5529 5527 5525 5523 5522 5519 5516 5515